Regional Weather Roundup
Issued by NWS

Home | Current Version | Previous Version | Text Only | Print | Product List | Glossary Off
Versions: 1 2 3 4 5 6 7 8 9 10 11 12 13 14 15 16 17 18 19 20 21 22 23 24 25 26 27 28 29 30 31 32 33 34 35 36 37 38 39 40 41 42 43 44 45 46 47 48 49 50

000
ASUS45 KBOU 240007
RWRCO

WEATHER ROUNDUP FOR COLORADO
NATIONAL WEATHER SERVICE DENVER/BOULDER CO
600 PM MDT TUE MAY 23 2017

NOTE: "FAIR" INDICATES FEW OR NO CLOUDS BELOW 12000 FEET WITH NO
SIGNIFICANT WEATHER AND/OR OBSTRUCTIONS TO VISIBILITY.

COZ001>005-013-030-031-240100-
...NORTHWEST COLORADO...

CITY           SKY/WX    TMP DP  RH WIND       PRES   REMARKS
CRAIG          FAIR      61  29  29 SW8       30.18F
HAYDEN         FAIR      59  28  31 W10       30.20F
MEEKER         FAIR      64  29  26 VRB5      30.19F
RABBIT EARS PA MOCLDY    34  32  93 W8        30.33F WCI  27
STEAMBOAT SPGS FAIR      58  31  36 W10       30.20F
WALDEN           N/A     50  23  34 NW15      30.24F
$$

COZ006>008-011-240100-
...WEST CENTRAL VALLEYS...

CITY           SKY/WX    TMP DP  RH WIND       PRES   REMARKS
GRAND JUNCTION FAIR      74  26  16 W7        30.09F
MONTROSE       FAIR      68  19  15 MISG      30.17F
EAGLE          NOT AVBL
RIFLE          FAIR      70  23  17 NW9       30.15S
DELTA          FAIR      75  20  12 NW3       30.12F
NUCLA          FAIR      70  21  16 N9G20     30.18F
$$

COZ017>023-064>068-240100-
...SOUTHWEST COLORADO...

CITY           SKY/WX    TMP DP  RH WIND       PRES   REMARKS
DURANGO        FAIR      70   8   9 N17G24    30.08R
CORTEZ         FAIR      72  15  11 N17G24    30.12F
PAGOSA SPRINGS FAIR      69   9  10 N7        30.12S
TELLURIDE      FAIR      55  22  27 NW5       30.31S
WOLF CREEK PAS FAIR      41  14  33 NW7       30.42R
$$

COZ009-010-012-014-032>034-037-058>063-240100-
...CENTRAL COLORADO...

CITY           SKY/WX    TMP DP  RH WIND       PRES   REMARKS
ASPEN          FAIR      57  21  24 NW8G17    30.21S
BUENA VISTA    FAIR      56  17  22 N18G25    30.18F
COPPER MTN     PTSUNNY   34  21  60 NW17      30.37S HAZE    WCI  23
BERTHOUD PASS  FAIR      23  12  63 NW35G44   30.32R WCI   4
COTTONWOOD PAS FAIR      54  14  20 NW3       30.27S
GUNNISON       FAIR      59  17  19 N10G16    30.19F
KREMMLING      FAIR      59  28  31 NW10      30.24S
LEADVILLE      FAIR      43  17  35 N16G29    30.28S
MONARCH PASS   FAIR      37  16  41 NW22G32   30.47S
SALIDA         FAIR      62  17  17 N13G18    30.24S
SUNLIGHT       FAIR      41  12  30 W6G22     30.40F
WILKERSON PASS FAIR      36  21  55 N10G25    30.34S
$$

COZ069>075-240100-
...SAN LUIS VALLEY/SANGRE DE CRISTO MOUNTAINS...

CITY           SKY/WX    TMP DP  RH WIND       PRES   REMARKS
ALAMOSA        FAIR      64  11  12 N18G30    30.11S
DEL NORTE      FAIR      62  20  20 W15G22    30.17R
LA VETA PASS   FAIR      39  30  70 NE6       30.38R
SAGUACHE       FAIR      61  16  17 N22G30    30.16S
$$

COZ035-036-038>040-240100-
...NORTHERN COLORADO FRONT RANGE...

CITY           SKY/WX    TMP DP  RH WIND       PRES   REMARKS
DENVER INTL AP FAIR      62  33  33 N14       30.10F
DMNS CITY PARK   N/A     63  30  28 N13G20    30.10S
AURORA         MOSUNNY   62  31  31 N16G26    30.11F
FRONT RANGE AP MOSUNNY   63  36  36 N17       30.10F
ERIE MUNI ARPT PTSUNNY   63  30  29 N12       30.09S
BOULDER MUN AP PTSUNNY   64  34  32 SE6       30.09F
CENTENNIAL     FAIR      59  31  34 N9G18     30.12F
BROOMFIELD     NOT AVBL
FORT COLLINS   FAIR      66  34  30 NE13      30.07F
LONGMONT       PTSUNNY   66  32  28 N3        30.09F
$$

COZ041-046-047-076>085-087-088-240100-
...PIKES PEAK/PALMER DIVIDE AND SOUTHERN FOOTHILLS...

CITY           SKY/WX    TMP DP  RH WIND       PRES   REMARKS
COLO. SPRINGS  FAIR      61  28  28 N23G30    30.12S
A. F. ACADEMY  FAIR      56  27  33 N20G29    30.12F
SCHRIEVER AFB  FAIR      58  26  29 N22G29    30.12F
CHEYENNE MTN   FAIR      54  26  35 NW9       30.10S
ELLICOTT       FAIR     N/A N/A N/A N18G30    30.11F
FALCON         FAIR      56  26  31 N16G22    30.16S
FORT CARSON    FAIR      60  28  29 NW12      30.10F
LIMON          FAIR      57  33  40 N23G29    30.09F
MONUMENT HILL  FAIR      50  32  50 N15       30.17F
CANON CITY     NOT AVBL
WALSENBURG     FAIR      61  34  36 NE8       30.13S
TRINIDAD       FAIR      59  31  34 NE10      30.13R
$$

COZ042>045-048>051-090-091-240100-
...NORTHEAST COLORADO...

CITY           SKY/WX    TMP DP  RH WIND       PRES   REMARKS
GREELEY ARPT   FAIR      64  35  34 N14       30.07
AKRON          FAIR      60  32  34 N22       30.05F
BURLINGTON     PTSUNNY   59  36  42 N21G29    30.04S
WRAY           PTSUNNY   63  32  31 N17G29    30.03F
YUMA           FAIR      59  19  21 N16       30.04F
STERLING       PTSUNNY   64  32  29 N23G29    30.03F
HOLYOKE        NOT AVBL
FORT MORGAN    FAIR      63  29  28 N17G24    30.07F
$$

COZ086-089-092>099-240100-
...SOUTHEAST COLORADO...

CITY           SKY/WX    TMP DP  RH WIND       PRES   REMARKS
PUEBLO         PTSUNNY   66  32  28 NE12      30.07F
LA JUNTA       FAIR      65  33  30 N15       30.06F
LAMAR          CLOUDY    63  35  35 N15       30.03F
SPRINGFIELD      N/A     60  33  36 N20G29    30.06S
$$



USA.gov is the U.S. government's official web portal to all federal, state and local government web resources and services.